Satellite-Ground Cal/Val Site Overpasses Predictions

Prediction of Satellite NPP Overpassing Cal/Val Site: Antarctic Dome C

Ground Cal/Val Site Location: Latitude: -75.10, Longitude: 123.35; Satellite-Ground Site NADIR distance within 100 km.

Table of predicted overpasses for the next 14.0 days since TLE Epoch: 6/24/2023
Interval Starting Time Ending Time Minimum Distance Time Minimum Distance (km)
1 06/24/2023 14:37:34 06/24/2023 14:37:46 06/24/2023 14:37:40 90.91
2 06/25/2023 07:39:06 06/25/2023 07:39:33 06/25/2023 07:39:19 35.88
3 06/26/2023 07:20:20 06/26/2023 07:20:39 06/26/2023 07:20:29 74.22
4 06/28/2023 15:02:35 06/28/2023 15:03:00 06/28/2023 15:02:47 53.45
5 06/29/2023 14:43:47 06/29/2023 14:44:11 06/29/2023 14:43:59 55.51
6 06/30/2023 07:45:28 06/30/2023 07:45:48 06/30/2023 07:45:38 71.70
7 07/01/2023 07:26:35 07/01/2023 07:27:02 07/01/2023 07:26:49 36.26
8 07/03/2023 15:09:01 07/03/2023 15:09:12 07/03/2023 15:09:07 91.70
9 07/04/2023 14:50:03 07/04/2023 14:50:32 07/04/2023 14:50:17 19.54
